COBE Rocket - Orbit

View from above orbital plane
View from above orbital plane
View from above satellite
View from above satellite

Ground track
Ground track

The orbit data is extracted from the following two-line orbital elements,

1 20323U 89089B   13168.53412193  .00000096  00000-0  34630-4 0  6803
2 20323 097.0801 327.1827 0072217 354.5862 075.3525 14.47313254243379
Epoch (UTC): 17 June 2013 12:49:08
Eccentricity: 0.0072217
inclination: 97.0801°
perigee height: 683 km
apogee height: 786 km
right ascension of ascending node: 327.1827°
argument of perigee: 354.5862°
revolutions per day: 14.47313254
mean anomaly at epoch: 75.3525°
orbit number at epoch: 24337

The dashed part of the orbit path shows where the satellite is in the earth's shadow,  

Developed and maintained by Chris Peat, Heavens-Above GmbH. Please read the updated FAQ before sending e-mail. Imprint. DLR